Vero Beach, FL

8:50 PM EDT on September 23, 2017 (GMT -0400)
Vero Beach Municipal

Weather History for KVRB - September, 2012

Change the Weather History Date:

Friday, September 28, 2012

  Actual Average Record
Temperature  
Mean Temperature 80 °F 80 °F  
Max Temperature 87 °F 87 °F 93 °F (1974)
Min Temperature 72 °F 73 °F 66 °F (1991)
Degree Days  
Heating Degree Days 0 0  
Month to date heating degree days 0 0  
Since 1 July heating degree days 0 0  
Cooling Degree Days 15 15  
Month to date cooling degree days 421 440  
Year to date cooling degree days 2954 2738  
Growing Degree Days 30 (Base 50)    
Moisture  
Dew Point 73 °F    
Average Humidity 77    
Maximum Humidity 94    
Minimum Humidity 59    
Precipitation  
Precipitation T in 0.23 in 2.78 in (1992)
Month to date precipitation 8.66 6.34  
Year to date precipitation 40.85 41.04  
Sea Level Pressure  
Sea Level Pressure 30.01 in    
Wind  
Wind Speed 5 mph (NE)    
Max Wind Speed 17 mph    
Max Gust Speed 22 mph    
Visibility 10 miles    
Events      
T = Trace of Precipitation, MM = Missing Value Source: NWS Daily Summary

Daily Weather History Graph

Daily Weather History Graph

Search for Another Location

Airport or City:

Trip Planner

Search our weather history database for the weather conditions in past years. The results will help you decide how hot, cold, wet, or windy it might be!

Date:

Astronomy

Sep. 28, 2012 Rise Set
Actual Time 7:13 AM EDT 7:10 PM EDT
Civil Twilight 6:49 AM EDT 7:33 PM EDT
Nautical Twilight 6:22 AM EDT 8:01 PM EDT
Astronomical Twilight 5:55 AM EDT 8:28 PM EDT
Moon 6:10 PM EDT (9/28) 5:46 AM EDT (9/28)
Length of Visible Light 12h 44m
Length of Day
11h 57m
Waxing Gibbous, 98% of the Moon is Illuminated
Sep 28
Waxing Gibbous
Sep 29
Full
Oct 8
Last Quarter
Oct 15
New
Oct 21
First Quarter

Hourly Weather History & Observations

Time (EDT) Temp. Heat Index Dew Point Humidity Pressure Visibility Wind Dir Wind Speed Gust Speed Precip Events Conditions
12:53 AM 75.9 °F - 73.0 °F 91% 30.05 in 10.0 mi North 3.5 mph - N/A   Partly Cloudy
1:53 AM 75.0 °F - 73.0 °F 94% 30.03 in 10.0 mi Calm Calm - 0.00 in   Clear
2:53 AM 73.9 °F - 72.0 °F 93% 30.02 in 10.0 mi Calm Calm - N/A   Clear
3:53 AM 73.9 °F - 72.0 °F 93% 30.01 in 10.0 mi Calm Calm - N/A   Clear
4:53 AM 73.0 °F - 71.1 °F 93% 30.00 in 10.0 mi North 4.6 mph - N/A   Clear
5:53 AM 73.0 °F - 72.0 °F 96% 30.01 in 10.0 mi Calm Calm - N/A   Partly Cloudy
6:53 AM 73.9 °F - 72.0 °F 93% 30.01 in 10.0 mi Calm Calm - N/A   Clear
7:53 AM 75.0 °F - 73.0 °F 94% 30.04 in 10.0 mi NW 5.8 mph - N/A   Clear
8:53 AM 81.0 °F 87.3 °F 75.9 °F 85% 30.04 in 10.0 mi North 4.6 mph - N/A   Scattered Clouds
9:53 AM 84.0 °F 90.2 °F 73.0 °F 69% 30.05 in 10.0 mi NE 8.1 mph - N/A   Clear
10:46 AM 84.2 °F 90.9 °F 73.4 °F 70% 30.05 in 10.0 mi North 8.1 mph - N/A   Mostly Cloudy
10:53 AM 84.0 °F 90.2 °F 73.0 °F 69% 30.06 in 10.0 mi ENE 4.6 mph - N/A   Scattered Clouds
11:04 AM 84.2 °F 90.9 °F 73.4 °F 70% 30.06 in 10.0 mi NE 8.1 mph - N/A   Mostly Cloudy
11:12 AM 84.2 °F 90.9 °F 73.4 °F 70% 30.05 in 10.0 mi NE 9.2 mph - N/A   Partly Cloudy
11:53 AM 84.9 °F 91.4 °F 73.0 °F 67% 30.04 in 10.0 mi NNE 9.2 mph - N/A   Scattered Clouds
12:53 PM 86.0 °F 93.0 °F 73.0 °F 65% 30.03 in 10.0 mi NNE 9.2 mph - N/A   Scattered Clouds
1:53 PM 87.1 °F 93.6 °F 72.0 °F 61% 30.01 in 10.0 mi NNE 9.2 mph - N/A   Clear
2:53 PM 87.1 °F 94.5 °F 73.0 °F 63% 29.97 in 10.0 mi NNE 12.7 mph - N/A   Scattered Clouds
3:53 PM 86.0 °F 93.8 °F 73.9 °F 67% 29.96 in 10.0 mi NE 11.5 mph 18.4 mph N/A   Scattered Clouds
4:35 PM 82.4 °F 87.2 °F 71.6 °F 70% 29.97 in 10.0 mi ENE 6.9 mph - N/A   Mostly Cloudy
4:45 PM 84.2 °F 89.6 °F 71.6 °F 66% 29.96 in 10.0 mi ENE 13.8 mph - N/A   Scattered Clouds
4:53 PM 84.0 °F 90.2 °F 73.0 °F 69% 29.96 in 10.0 mi East 11.5 mph - N/A   Partly Cloudy
5:53 PM 84.0 °F 90.2 °F 73.0 °F 69% 29.97 in 10.0 mi ENE 10.4 mph - N/A   Clear
6:53 PM 80.1 °F 83.8 °F 72.0 °F 76% 29.99 in 10.0 mi East 8.1 mph - N/A   Clear
7:53 PM 79.0 °F - 73.0 °F 82% 29.99 in 10.0 mi East 4.6 mph - N/A   Clear
8:53 PM 77.0 °F - 73.0 °F 88% 30.00 in 10.0 mi Calm Calm - N/A   Partly Cloudy
9:53 PM 79.0 °F - 73.9 °F 84% 30.01 in 10.0 mi East 5.8 mph - N/A   Partly Cloudy
10:53 PM 79.0 °F - 73.0 °F 82% 30.00 in 10.0 mi Calm Calm - N/A   Clear
11:53 PM 78.1 °F - 73.0 °F 84% 29.99 in 10.0 mi East 3.5 mph - N/A   Clear